Hourly Data Report for October 19, 2013

All times are specified in Local Standard Time (LST). Add 1 hour to adjust for Daylight Saving Time where and when it is observed.

KAMLOOPS A
BRITISH COLUMBIA

50°42'09.000" N
120°26'55.000" W
345.30 m
1163781
71887
YKA

Download Data

Hourly Data (October 2013)
Hourly Data Report for October 19, 2013
Temp Definition
°C
Dew Point Temp Definition
°C
Rel Hum Definition
%
Wind Dir Definition
10's deg

Wind Spd Definition
km/h
Visibility Definition
km
Stn Press Definition
kPa
Hmdx Definition


Wind Chill Definition


Weather Definition


TIME
00:00 Legend Double Dagger 2.1 0.5 89 9 7 64.4 98.19     LegendNANA
01:00 Legend Double Dagger 2.4 1.2 92 11 5 64.4 98.19     Mostly Cloudy
02:00 Legend Double Dagger 2.7 1.8 94 8 5 4.8 98.19     Fog
03:00 Legend Double Dagger 2.6 1.9 95 8 7 2.4 98.23     Fog
04:00 Legend Double Dagger 1.8 1.1 95 10 6 1.6 98.24     Fog
05:00 Legend Double Dagger 2.0 1.4 96 8 5 1.0 98.23     Fog
06:00 Legend Double Dagger 2.2 1.6 96 1 1 6.4 98.26     Fog
07:00 Legend Double Dagger 2.9 2.2 95 4 5 3.6 98.25     Fog
08:00 Legend Double Dagger 3.6 2.4 92 9 6 9.7 98.32     Fog
09:00 Legend Double Dagger 4.4 2.4 87 10 9 16.1 98.30     LegendNANA
10:00 Legend Double Dagger 5.8 2.8 81 18 1 19.3 98.25     Mostly Cloudy
11:00 Legend Double Dagger 7.8 2.9 71 26 3 64.4 98.21     LegendNANA
12:00 Legend Double Dagger 9.2 3.2 66 20 6 64.4 98.16     LegendNANA
13:00 Legend Double Dagger 10.8 3.4 60 28 4 64.4 98.09     Mainly Clear
14:00 Legend Double Dagger 12.1 3.4 55 28 8 64.4 98.00     LegendNANA
15:00 Legend Double Dagger 12.6 3.3 53 32 9 64.4 97.97     LegendNANA
16:00 Legend Double Dagger 12.6 3.3 53 27 5 64.4 97.93     Mainly Clear
17:00 Legend Double Dagger 10.3 4.0 65 10 5 64.4 97.93     LegendNANA
18:00 Legend Double Dagger 9.5 3.9 68 16 1 64.4 97.97     LegendNANA
19:00 Legend Double Dagger 8.6 3.7 71 7 4 64.4 98.03     Mostly Cloudy
20:00 Legend Double Dagger 7.7 3.9 77 14 3 64.4 98.07     LegendNANA
21:00 Legend Double Dagger 4.9 1.9 81 5 4 64.4 98.12     LegendNANA
22:00 Legend Double Dagger 5.3 2.0 79 7 3 64.4 98.17     Mainly Clear
23:00 Legend Double Dagger 5.4 3.1 85 10 1 64.4 98.19     LegendNANA

Notes on Data Quality.

Legend

  • E = Estimated
  • M = Missing
  • NA = Not Available
  • ‡ = Partner data that is not subject to review by the National Climate Archives
Date modified: